EDT,Max TemperatureF,Mean TemperatureF,Min TemperatureF,Max Dew PointF,MeanDew PointF,Min DewpointF,Max Humidity, Mean Humidity, Min Humidity, Max Sea Level PressureIn, Mean Sea Level PressureIn, Min Sea Level PressureIn, Max VisibilityMiles, Mean VisibilityMiles, Min VisibilityMiles, Max Wind SpeedMPH, Mean Wind SpeedMPH, Max Gust SpeedMPH,PrecipitationIn, CloudCover, Events, WindDirDegrees
2013-8-1,80,73,66,68,64,59,94,81,54,30.03,30.00,29.96,10,6,0,14,3,17,0.00,5,,287
2013-8-2,80,70,59,63,59,55,100,70,42,30.08,30.05,30.02,10,10,5,6,3,,0.00,1,,222
2013-8-3,82,75,68,72,66,61,94,75,61,30.05,30.02,29.98,10,9,4,12,4,17,0.00,5,,228
2013-8-4,77,70,62,68,59,54,100,72,44,30.13,30.10,30.05,10,7,0,10,2,22,0.00,3,,342
2013-8-5,78,66,55,63,56,54,94,68,42,30.14,30.08,29.99,10,10,7,7,1,,0.00,1,,61
2013-8-6,82,74,66,70,65,61,88,76,54,30.01,29.98,29.96,10,10,7,8,2,,0.00,6,,157
2013-8-7,84,76,69,73,70,68,94,82,66,30.01,29.97,29.91,10,8,1,12,4,20,0.00,6,,186
2013-8-8,82,76,71,72,70,68,94,83,66,30.03,29.98,29.93,10,10,2,15,6,18,0.00,5,,202
2013-8-9,84,78,71,72,70,68,94,84,66,30.08,30.02,29.98,10,9,1,14,5,21,0.00,6,,231
2013-8-10,82,76,69,72,70,68,94,87,70,30.14,30.09,30.05,10,7,2,10,2,,0.00,6,,220
2013-8-11,84,76,69,72,70,68,94,82,62,30.14,30.11,30.07,10,7,3,9,3,,0.00,5,,238
2013-8-12,80,74,68,73,69,64,100,85,70,30.11,30.04,29.95,10,7,0,12,3,18,0.00,5,,207
2013-8-13,78,72,66,68,66,59,94,83,65,30.03,29.95,29.91,10,8,4,12,5,30,0.00,7,,290
2013-8-14,71,62,53,57,51,48,94,67,46,30.15,30.11,30.03,10,10,7,12,5,16,0.00,2,,28
2013-8-15,75,62,50,57,53,48,100,72,44,30.15,30.12,30.07,10,10,7,8,2,,0.00,0,,49
2013-8-16,78,68,57,64,59,55,94,75,57,30.15,30.11,30.07,10,10,7,9,3,,0.00,4,,59
2013-8-17,80,71,62,63,60,57,88,72,45,30.18,30.14,30.12,10,10,7,10,2,16,0.00,4,,89
2013-8-18,77,70,64,66,64,61,94,84,65,30.21,30.15,30.12,10,9,3,5,1,,0.00,5,,145
2013-8-19,84,74,64,68,65,63,100,79,48,30.17,30.13,30.08,10,7,0,5,1,,0.00,5,,40
2013-8-20,84,74,64,70,66,63,94,78,55,30.20,30.14,30.10,10,8,1,8,1,,0.00,4,,103
2013-8-21,82,73,64,70,67,59,94,85,58,30.21,30.16,30.11,10,8,0,23,3,38,0.00,2,,178
2013-8-22,84,76,69,72,68,66,94,79,55,30.17,30.12,30.06,10,8,5,12,4,20,0.00,2,,217
2013-8-23,82,76,68,70,67,63,94,77,51,30.14,30.09,30.05,10,8,3,6,2,,0.00,2,,1
2013-8-24,84,72,60,66,61,55,100,72,37,30.27,30.21,30.14,10,7,0,9,2,,0.00,2,,78
2013-8-25,84,72,59,66,62,55,94,73,48,30.37,30.30,30.26,10,9,5,9,2,,0.00,1,,218
2013-8-26,84,74,64,68,65,61,94,73,51,30.31,30.24,30.15,10,10,7,10,4,,0.00,1,,234
2013-8-27,86,77,68,72,68,64,88,75,55,30.16,30.11,30.04,10,8,5,9,6,,0.00,2,,237
2013-8-28,87,79,71,72,70,68,94,75,55,30.06,30.02,29.96,10,8,4,12,6,17,0.00,1,,245
2013-8-29,86,78,69,72,68,66,94,75,51,30.05,30.01,29.98,10,8,3,7,4,,0.00,3,,352
2013-8-30,87,76,64,72,67,63,100,76,49,30.03,29.98,29.91,10,6,0,8,2,,0.00,2,,234
2013-8-31,89,78,66,73,68,64,94,80,55,29.97,29.91,29.85,10,9,4,16,6,21,0.00,4,,198